owner,sensor,date,latitude,longitude,vertical_datum,direction_of_sea_water_velocity,sea_water_speed,upward_sea_water_velocity,qcFlag 
ADCP,ioos:station:wmo:42890:1,2010-11-01T00:17:00Z,27.6250,-90.4410,15.2,229.0,14.7,-9999.0,'11111222,11111222,99999999' 
ADCP,ioos:station:wmo:42890:1,2010-11-01T00:37:00Z,27.6250,-90.4410,15.2,243.0,15.4,-9999.0,'11111222,11111222,99999999' 
ADCP,ioos:station:wmo:42890:1,2010-11-01T00:57:00Z,27.6250,-90.4410,15.2,247.0,17.1,-9999.0,'11111222,11111222,99999999' 
ADCP,ioos:station:wmo:42890:1,2010-11-01T01:17:00Z,27.6250,-90.4410,15.2,247.0,15.8,-9999.0,'11111222,11111222,99999999' 
ADCP,ioos:station:wmo:42890:1,2010-11-01T01:37:00Z,27.6250,-90.4410,15.2,244.0,15.3,-9999.0,'11111222,11111222,99999999' 
ADCP,ioos:station:wmo:42890:1,2010-11-01T01:57:00Z,27.6250,-90.4410,15.2,247.0,15.8,-9999.0,'11111222,11111222,99999999' 
ADCP,ioos:station:wmo:42890:1,2010-11-01T02:17:00Z,27.6250,-90.4410,15.2,247.0,17.2,-9999.0,'11111222,11111222,99999999' 
ADCP,ioos:station:wmo:42890:1,2010-11-01T02:37:00Z,27.6250,-90.4410,15.2,243.0,17.7,-9999.0,'11111222,11111222,99999999' 
ADCP,ioos:station:wmo:42890:1,2010-11-01T02:57:00Z,27.6250,-90.4410,15.2,241.0,13.5,-9999.0,'11111222,11111222,99999999' 
ADCP,ioos:station:wmo:42890:1,2010-11-01T03:17:00Z,27.6250,-90.4410,15.2,237.0,12.8,-9999.0,'11111222,11111222,99999999' 
ADCP,ioos:station:wmo:42890:1,2010-11-01T03:37:00Z,27.6250,-90.4410,15.2,231.0,12.9,-9999.0,'11111222,11111222,99999999' 
ADCP,ioos:station:wmo:42890:1,2010-11-01T03:57:00Z,27.6250,-90.4410,15.2,217.0,11.1,-9999.0,'11111222,11111222,99999999' 
ADCP,ioos:station:wmo:42890:1,2010-11-01T04:17:00Z,27.6250,-90.4410,15.2,231.0,13.2,-9999.0,'11111222,11111222,99999999' 
ADCP,ioos:station:wmo:42890:1,2010-11-01T04:37:00Z,27.6250,-90.4410,15.2,207.0,10.7,-9999.0,'11111222,11111222,99999999' 
ADCP,ioos:station:wmo:42890:1,2010-11-01T04:57:00Z,27.6250,-90.4410,15.2,209.0,12.8,-9999.0,'11111222,11111222,99999999' 
ADCP,ioos:station:wmo:42890:1,2010-11-01T05:17:00Z,27.6250,-90.4410,15.2,188.0,13.8,-9999.0,'11111222,11111222,99999999' 
ADCP,ioos:station:wmo:42890:1,2010-11-01T05:37:00Z,27.6250,-90.4410,15.2,158.0,18.3,-9999.0,'11111222,11111222,99999999' 
ADCP,ioos:station:wmo:42890:1,2010-11-01T05:57:00Z,27.6250,-90.4410,15.2,206.0,12.0,-9999.0,'11111222,11111222,99999999' 
ADCP,ioos:station:wmo:42890:1,2010-11-01T06:17:00Z,27.6250,-90.4410,15.2,196.0,10.6,-9999.0,'11111222,11111222,99999999' 
ADCP,ioos:station:wmo:42890:1,2010-11-01T06:37:00Z,27.6250,-90.4410,15.2,195.0,11.0,-9999.0,'11111222,11111222,99999999' 
ADCP,ioos:station:wmo:42890:1,2010-11-01T06:57:00Z,27.6250,-90.4410,15.2,189.0,9.3,-9999.0,'11133222,11111222,99999999' 
ADCP,ioos:station:wmo:42890:1,2010-11-01T07:17:00Z,27.6250,-90.4410,15.2,211.0,10.5,-9999.0,'11111222,11111222,99999999' 
ADCP,ioos:station:wmo:42890:1,2010-11-01T07:37:00Z,27.6250,-90.4410,15.2,192.0,11.6,-9999.0,'11111222,11111222,99999999' 
ADCP,ioos:station:wmo:42890:1,2010-11-01T07:57:00Z,27.6250,-90.4410,15.2,231.0,8.3,-9999.0,'11133222,11111222,99999999' 
ADCP,ioos:station:wmo:42890:1,2010-11-01T08:17:00Z,27.6250,-90.4410,15.2,238.0,9.6,-9999.0,'11133222,11111222,99999999' 
ADCP,ioos:station:wmo:42890:1,2010-11-01T08:37:00Z,27.6250,-90.4410,15.2,231.0,10.4,-9999.0,'11111222,11111222,99999999' 
ADCP,ioos:station:wmo:42890:1,2010-11-01T08:57:00Z,27.6250,-90.4410,15.2,232.0,9.0,-9999.0,'11133222,11111222,99999999' 
ADCP,ioos:station:wmo:42890:1,2010-11-01T09:17:00Z,27.6250,-90.4410,15.2,242.0,10.7,-9999.0,'11111222,11111222,99999999' 
ADCP,ioos:station:wmo:42890:1,2010-11-01T09:37:00Z,27.6250,-90.4410,15.2,243.0,10.4,-9999.0,'11111222,11111222,99999999' 
ADCP,ioos:station:wmo:42890:1,2010-11-01T09:57:00Z,27.6250,-90.4410,15.2,247.0,14.1,-9999.0,'11111222,11111222,99999999' 
ADCP,ioos:station:wmo:42890:1,2010-11-01T10:17:00Z,27.6250,-90.4410,15.2,234.0,9.0,-9999.0,'11133222,11111222,99999999' 
ADCP,ioos:station:wmo:42890:1,2010-11-01T10:37:00Z,27.6250,-90.4410,15.2,234.0,8.6,-9999.0,'11133222,11111222,99999999' 
ADCP,ioos:station:wmo:42890:1,2010-11-01T10:57:00Z,27.6250,-90.4410,15.2,233.0,9.1,-9999.0,'11133222,11111222,99999999' 
ADCP,ioos:station:wmo:42890:1,2010-11-01T11:17:00Z,27.6250,-90.4410,15.2,233.0,8.4,-9999.0,'11133222,11111222,99999999' 
ADCP,ioos:station:wmo:42890:1,2010-11-01T11:37:00Z,27.6250,-90.4410,15.2,235.0,7.7,-9999.0,'11133222,11111222,99999999' 
ADCP,ioos:station:wmo:42890:1,2010-11-01T11:57:00Z,27.6250,-90.4410,15.2,241.0,9.0,-9999.0,'11133222,11111222,99999999' 
ADCP,ioos:station:wmo:42890:1,2010-11-01T12:17:00Z,27.6250,-90.4410,15.2,237.0,8.6,-9999.0,'11133222,11111222,99999999' 
ADCP,ioos:station:wmo:42890:1,2010-11-01T12:37:00Z,27.6250,-90.4410,15.2,236.0,8.9,-9999.0,'11133222,11111222,99999999' 
ADCP,ioos:station:wmo:42890:1,2010-11-01T12:57:00Z,27.6250,-90.4410,15.2,230.0,8.6,-9999.0,'11133222,11111222,99999999' 
ADCP,ioos:station:wmo:42890:1,2010-11-01T13:17:00Z,27.6250,-90.4410,15.2,223.0,8.1,-9999.0,'11133222,11111222,99999999' 
ADCP,ioos:station:wmo:42890:1,2010-11-01T13:37:00Z,27.6250,-90.4410,15.2,222.0,7.2,-9999.0,'11133222,11111222,99999999' 
ADCP,ioos:station:wmo:42890:1,2010-11-01T13:57:00Z,27.6250,-90.4410,15.2,175.0,9.4,-9999.0,'11133222,11111222,99999999' 
ADCP,ioos:station:wmo:42890:1,2010-11-01T14:17:00Z,27.6250,-90.4410,15.2,178.0,16.1,-9999.0,'11111222,11111222,99999999' 
ADCP,ioos:station:wmo:42890:1,2010-11-01T14:37:00Z,27.6250,-90.4410,15.2,220.0,23.1,-9999.0,'11111222,11111222,99999999' 
ADCP,ioos:station:wmo:42890:1,2010-11-01T14:57:00Z,27.6250,-90.4410,15.2,220.0,21.6,-9999.0,'11111222,11111222,99999999' 
ADCP,ioos:station:wmo:42890:1,2010-11-01T15:17:00Z,27.6250,-90.4410,15.2,217.0,20.0,-9999.0,'11111222,11111222,99999999' 
ADCP,ioos:station:wmo:42890:1,2010-11-01T15:37:00Z,27.6250,-90.4410,15.2,211.0,24.4,-9999.0,'11111222,11111222,99999999' 
ADCP,ioos:station:wmo:42890:1,2010-11-01T15:57:00Z,27.6250,-90.4410,15.2,224.0,21.6,-9999.0,'11111222,11111222,99999999' 
ADCP,ioos:station:wmo:42890:1,2010-11-01T16:17:00Z,27.6250,-90.4410,15.2,222.0,20.4,-9999.0,'11111222,11111222,99999999' 
ADCP,ioos:station:wmo:42890:1,2010-11-01T16:37:00Z,27.6250,-90.4410,15.2,226.0,19.2,-9999.0,'11111222,11111222,99999999' 
ADCP,ioos:station:wmo:42890:1,2010-11-01T16:57:00Z,27.6250,-90.4410,15.2,226.0,17.5,-9999.0,'11111222,11111222,99999999' 
ADCP,ioos:station:wmo:42890:1,2010-11-01T17:17:00Z,27.6250,-90.4410,15.2,227.0,16.3,-9999.0,'11111222,11111222,99999999' 
ADCP,ioos:station:wmo:42890:1,2010-11-01T17:37:00Z,27.6250,-90.4410,15.2,235.0,18.8,-9999.0,'11111222,11111222,99999999' 
ADCP,ioos:station:wmo:42890:1,2010-11-01T17:57:00Z,27.6250,-90.4410,15.2,237.0,21.7,-9999.0,'11111222,11111222,99999999' 
ADCP,ioos:station:wmo:42890:1,2010-11-01T18:17:00Z,27.6250,-90.4410,15.2,238.0,22.0,-9999.0,'11111222,11111222,99999999' 
ADCP,ioos:station:wmo:42890:1,2010-11-01T18:37:00Z,27.6250,-90.4410,15.2,245.0,25.7,-9999.0,'11111222,11111222,99999999' 
ADCP,ioos:station:wmo:42890:1,2010-11-01T18:57:00Z,27.6250,-90.4410,15.2,246.0,35.2,-9999.0,'11111222,11111222,99999999' 
ADCP,ioos:station:wmo:42890:1,2010-11-01T19:17:00Z,27.6250,-90.4410,15.2,254.0,21.2,-9999.0,'11111222,11111222,99999999' 
ADCP,ioos:station:wmo:42890:1,2010-11-01T19:37:00Z,27.6250,-90.4410,15.2,290.0,8.9,-9999.0,'11133222,11111222,99999999' 
ADCP,ioos:station:wmo:42890:1,2010-11-01T19:57:00Z,27.6250,-90.4410,15.2,9.0,14.1,-9999.0,'11111222,11111222,99999999' 
ADCP,ioos:station:wmo:42890:1,2010-11-01T20:17:00Z,27.6250,-90.4410,15.2,301.0,8.7,-9999.0,'11133222,11111222,99999999' 
ADCP,ioos:station:wmo:42890:1,2010-11-01T20:37:00Z,27.6250,-90.4410,15.2,314.0,8.7,-9999.0,'11133222,11111222,99999999' 
ADCP,ioos:station:wmo:42890:1,2010-11-01T20:57:00Z,27.6250,-90.4410,15.2,37.0,23.6,-9999.0,'11111222,11111222,99999999' 
ADCP,ioos:station:wmo:42890:1,2010-11-01T21:17:00Z,27.6250,-90.4410,15.2,278.0,18.7,-9999.0,'11111222,11111222,99999999' 
ADCP,ioos:station:wmo:42890:1,2010-11-01T21:37:00Z,27.6250,-90.4410,15.2,310.0,7.1,-9999.0,'11133222,11111222,99999999' 
ADCP,ioos:station:wmo:42890:1,2010-11-01T21:57:00Z,27.6250,-90.4410,15.2,315.0,9.3,-9999.0,'11133222,11111222,99999999' 
ADCP,ioos:station:wmo:42890:1,2010-11-01T22:17:00Z,27.6250,-90.4410,15.2,318.0,10.0,-9999.0,'11111222,11111222,99999999' 
ADCP,ioos:station:wmo:42890:1,2010-11-01T22:37:00Z,27.6250,-90.4410,15.2,307.0,13.7,-9999.0,'11111222,11111222,99999999' 
ADCP,ioos:station:wmo:42890:1,2010-11-01T22:57:00Z,27.6250,-90.4410,15.2,309.0,12.4,-9999.0,'11111222,11111222,99999999' 
ADCP,ioos:station:wmo:42890:1,2010-11-01T23:17:00Z,27.6250,-90.4410,15.2,309.0,12.7,-9999.0,'11111222,11111222,99999999' 
ADCP,ioos:station:wmo:42890:1,2010-11-01T23:37:00Z,27.6250,-90.4410,15.2,306.0,13.3,-9999.0,'11111222,11111222,99999999' 
ADCP,ioos:station:wmo:42890:1,2010-11-01T23:57:00Z,27.6250,-90.4410,15.2,310.0,11.7,-9999.0,'11111222,11111222,99999999' 
ADCP,ioos:station:wmo:42890:1,2010-11-02T00:17:00Z,27.6250,-90.4410,15.2,313.0,11.7,-9999.0,'11111222,11111222,99999999' 
ADCP,ioos:station:wmo:42890:1,2010-11-02T00:37:00Z,27.6250,-90.4410,15.2,264.0,12.4,-9999.0,'11111222,11111222,99999999' 
ADCP,ioos:station:wmo:42890:1,2010-11-02T00:57:00Z,27.6250,-90.4410,15.2,269.0,13.9,-9999.0,'11111222,11111222,99999999' 
ADCP,ioos:station:wmo:42890:1,2010-11-02T01:17:00Z,27.6250,-90.4410,15.2,267.0,10.0,-9999.0,'11111222,11111222,99999999' 
ADCP,ioos:station:wmo:42890:1,2010-11-02T01:37:00Z,27.6250,-90.4410,15.2,291.0,13.8,-9999.0,'11111222,11111222,99999999' 
ADCP,ioos:station:wmo:42890:1,2010-11-02T01:57:00Z,27.6250,-90.4410,15.2,47.0,24.9,-9999.0,'11111222,11111222,99999999' 
ADCP,ioos:station:wmo:42890:1,2010-11-02T02:17:00Z,27.6250,-90.4410,15.2,220.0,15.3,-9999.0,'11111222,11111222,99999999' 
ADCP,ioos:station:wmo:42890:1,2010-11-02T02:37:00Z,27.6250,-90.4410,15.2,287.0,16.0,-9999.0,'11111222,11111222,99999999' 
ADCP,ioos:station:wmo:42890:1,2010-11-02T02:57:00Z,27.6250,-90.4410,15.2,283.0,9.0,-9999.0,'11133222,11111222,99999999' 
ADCP,ioos:station:wmo:42890:1,2010-11-02T03:17:00Z,27.6250,-90.4410,15.2,289.0,15.7,-9999.0,'11111222,11111222,99999999' 
ADCP,ioos:station:wmo:42890:1,2010-11-02T03:37:00Z,27.6250,-90.4410,15.2,288.0,12.8,-9999.0,'11111222,11111222,99999999' 
ADCP,ioos:station:wmo:42890:1,2010-11-02T03:57:00Z,27.6250,-90.4410,15.2,270.0,16.3,-9999.0,'11111222,11111222,99999999' 
ADCP,ioos:station:wmo:42890:1,2010-11-02T04:17:00Z,27.6250,-90.4410,15.2,289.0,9.7,-9999.0,'11133222,11111222,99999999' 
ADCP,ioos:station:wmo:42890:1,2010-11-02T04:37:00Z,27.6250,-90.4410,15.2,288.0,11.0,-9999.0,'11111222,11111222,99999999' 
ADCP,ioos:station:wmo:42890:1,2010-11-02T04:57:00Z,27.6250,-90.4410,15.2,288.0,14.1,-9999.0,'11111222,11111222,99999999' 
ADCP,ioos:station:wmo:42890:1,2010-11-02T05:17:00Z,27.6250,-90.4410,15.2,305.0,13.0,-9999.0,'11111222,11111222,99999999' 
ADCP,ioos:station:wmo:42890:1,2010-11-02T05:37:00Z,27.6250,-90.4410,15.2,289.0,11.6,-9999.0,'11111222,11111222,99999999' 
ADCP,ioos:station:wmo:42890:1,2010-11-02T05:57:00Z,27.6250,-90.4410,15.2,298.0,15.0,-9999.0,'11111222,11111222,99999999' 
ADCP,ioos:station:wmo:42890:1,2010-11-02T06:17:00Z,27.6250,-90.4410,15.2,281.0,17.2,-9999.0,'11111222,11111222,99999999' 
ADCP,ioos:station:wmo:42890:1,2010-11-02T06:37:00Z,27.6250,-90.4410,15.2,120.0,23.3,-9999.0,'11111222,11111222,99999999' 
ADCP,ioos:station:wmo:42890:1,2010-11-02T06:57:00Z,27.6250,-90.4410,15.2,306.0,7.3,-9999.0,'11133222,11111222,99999999' 
ADCP,ioos:station:wmo:42890:1,2010-11-02T07:17:00Z,27.6250,-90.4410,15.2,305.0,7.5,-9999.0,'11133222,11111222,99999999' 
ADCP,ioos:station:wmo:42890:1,2010-11-02T07:37:00Z,27.6250,-90.4410,15.2,280.0,13.1,-9999.0,'11111222,11111222,99999999' 
ADCP,ioos:station:wmo:42890:1,2010-11-02T07:57:00Z,27.6250,-90.4410,15.2,353.0,14.7,-9999.0,'11111222,11111222,99999999' 
ADCP,ioos:station:wmo:42890:1,2010-11-02T08:17:00Z,27.6250,-90.4410,15.2,271.0,17.3,-9999.0,'11111222,11111222,99999999' 
ADCP,ioos:station:wmo:42890:1,2010-11-02T08:37:00Z,27.6250,-90.4410,15.2,304.0,7.9,-9999.0,'11133222,11111222,99999999' 
ADCP,ioos:station:wmo:42890:1,2010-11-02T08:57:00Z,27.6250,-90.4410,15.2,313.0,8.1,-9999.0,'11133222,11111222,99999999' 
ADCP,ioos:station:wmo:42890:1,2010-11-02T09:17:00Z,27.6250,-90.4410,15.2,293.0,30.6,-9999.0,'11111222,11111222,99999999' 
ADCP,ioos:station:wmo:42890:1,2010-11-02T09:37:00Z,27.6250,-90.4410,15.2,233.0,18.3,-9999.0,'11111222,11111222,99999999' 
ADCP,ioos:station:wmo:42890:1,2010-11-02T09:57:00Z,27.6250,-90.4410,15.2,162.0,11.8,-9999.0,'11111222,11111222,99999999' 
ADCP,ioos:station:wmo:42890:1,2010-11-02T10:17:00Z,27.6250,-90.4410,15.2,155.0,10.7,-9999.0,'11111222,11111222,99999999' 
ADCP,ioos:station:wmo:42890:1,2010-11-02T10:37:00Z,27.6250,-90.4410,15.2,243.0,15.6,-9999.0,'11111222,11111222,99999999' 
ADCP,ioos:station:wmo:42890:1,2010-11-02T10:57:00Z,27.6250,-90.4410,15.2,238.0,14.1,-9999.0,'11111222,11111222,99999999' 
ADCP,ioos:station:wmo:42890:1,2010-11-02T11:17:00Z,27.6250,-90.4410,15.2,238.0,14.8,-9999.0,'11111222,11111222,99999999' 
ADCP,ioos:station:wmo:42890:1,2010-11-02T11:37:00Z,27.6250,-90.4410,15.2,203.0,11.4,-9999.0,'11111222,11111222,99999999' 
ADCP,ioos:station:wmo:42890:1,2010-11-02T11:57:00Z,27.6250,-90.4410,15.2,169.0,16.4,-9999.0,'11111222,11111222,99999999' 
ADCP,ioos:station:wmo:42890:1,2010-11-02T12:17:00Z,27.6250,-90.4410,15.2,143.0,13.5,-9999.0,'11111222,11111222,99999999' 
ADCP,ioos:station:wmo:42890:1,2010-11-02T12:37:00Z,27.6250,-90.4410,15.2,166.0,15.6,-9999.0,'11111222,11111222,99999999' 
ADCP,ioos:station:wmo:42890:1,2010-11-02T12:57:00Z,27.6250,-90.4410,15.2,210.0,19.9,-9999.0,'11111222,11111222,99999999' 
ADCP,ioos:station:wmo:42890:1,2010-11-02T13:17:00Z,27.6250,-90.4410,15.2,196.0,14.8,-9999.0,'11111222,11111222,99999999' 
ADCP,ioos:station:wmo:42890:1,2010-11-02T13:37:00Z,27.6250,-90.4410,15.2,173.0,13.5,-9999.0,'11111222,11111222,99999999' 
ADCP,ioos:station:wmo:42890:1,2010-11-02T13:57:00Z,27.6250,-90.4410,15.2,217.0,16.7,-9999.0,'11111222,11111222,99999999' 
ADCP,ioos:station:wmo:42890:1,2010-11-02T14:17:00Z,27.6250,-90.4410,15.2,264.0,8.4,-9999.0,'11133222,11111222,99999999' 
ADCP,ioos:station:wmo:42890:1,2010-11-02T14:37:00Z,27.6250,-90.4410,15.2,279.0,10.1,-9999.0,'11111222,11111222,99999999' 
ADCP,ioos:station:wmo:42890:1,2010-11-02T14:57:00Z,27.6250,-90.4410,15.2,312.0,10.1,-9999.0,'11111222,11111222,99999999' 
ADCP,ioos:station:wmo:42890:1,2010-11-02T15:17:00Z,27.6250,-90.4410,15.2,286.0,6.6,-9999.0,'11133222,11111222,99999999' 
ADCP,ioos:station:wmo:42890:1,2010-11-02T15:37:00Z,27.6250,-90.4410,15.2,283.0,5.4,-9999.0,'11133222,11111222,99999999' 
ADCP,ioos:station:wmo:42890:1,2010-11-02T16:17:00Z,27.6250,-90.4410,15.2,122.0,11.0,-9999.0,'11111222,11111222,99999999' 
ADCP,ioos:station:wmo:42890:1,2010-11-02T16:37:00Z,27.6250,-90.4410,15.2,263.0,8.2,-9999.0,'11133222,11111222,99999999' 
ADCP,ioos:station:wmo:42890:1,2010-11-02T16:57:00Z,27.6250,-90.4410,15.2,17.0,5.9,-9999.0,'11133222,11111222,99999999' 
ADCP,ioos:station:wmo:42890:1,2010-11-02T17:17:00Z,27.6250,-90.4410,15.2,278.0,9.6,-9999.0,'11133222,11111222,99999999' 
ADCP,ioos:station:wmo:42890:1,2010-11-02T17:37:00Z,27.6250,-90.4410,15.2,292.0,10.8,-9999.0,'11111222,11111222,99999999' 
ADCP,ioos:station:wmo:42890:1,2010-11-02T17:57:00Z,27.6250,-90.4410,15.2,305.0,6.6,-9999.0,'11133222,11111222,99999999' 
ADCP,ioos:station:wmo:42890:1,2010-11-02T18:17:00Z,27.6250,-90.4410,15.2,272.0,5.4,-9999.0,'11133222,11111222,99999999' 
ADCP,ioos:station:wmo:42890:1,2010-11-02T18:37:00Z,27.6250,-90.4410,15.2,174.0,5.9,-9999.0,'11133222,11111222,99999999' 
ADCP,ioos:station:wmo:42890:1,2010-11-02T18:57:00Z,27.6250,-90.4410,15.2,179.0,6.9,-9999.0,'11133222,11111222,99999999' 
ADCP,ioos:station:wmo:42890:1,2010-11-02T19:17:00Z,27.6250,-90.4410,15.2,186.0,8.0,-9999.0,'11133222,11111222,99999999' 
ADCP,ioos:station:wmo:42890:1,2010-11-02T19:37:00Z,27.6250,-90.4410,15.2,184.0,9.6,-9999.0,'11133222,11111222,99999999' 
ADCP,ioos:station:wmo:42890:1,2010-11-02T19:57:00Z,27.6250,-90.4410,15.2,210.0,12.9,-9999.0,'11111222,11111222,99999999' 
ADCP,ioos:station:wmo:42890:1,2010-11-02T20:17:00Z,27.6250,-90.4410,15.2,168.0,12.2,-9999.0,'11111222,11111222,99999999' 
ADCP,ioos:station:wmo:42890:1,2010-11-02T20:37:00Z,27.6250,-90.4410,15.2,169.0,13.1,-9999.0,'11111222,11111222,99999999' 
ADCP,ioos:station:wmo:42890:1,2010-11-02T20:57:00Z,27.6250,-90.4410,15.2,200.0,15.1,-9999.0,'11111222,11111222,99999999' 
ADCP,ioos:station:wmo:42890:1,2010-11-02T21:17:00Z,27.6250,-90.4410,15.2,188.0,12.1,-9999.0,'11111222,11111222,99999999' 
ADCP,ioos:station:wmo:42890:1,2010-11-02T21:37:00Z,27.6250,-90.4410,15.2,209.0,23.1,-9999.0,'11111222,11111222,99999999' 
ADCP,ioos:station:wmo:42890:1,2010-11-02T21:57:00Z,27.6250,-90.4410,15.2,184.0,14.8,-9999.0,'11111222,11111222,99999999' 
ADCP,ioos:station:wmo:42890:1,2010-11-02T22:17:00Z,27.6250,-90.4410,15.2,149.0,16.7,-9999.0,'11111222,11111222,99999999' 
ADCP,ioos:station:wmo:42890:1,2010-11-02T22:37:00Z,27.6250,-90.4410,15.2,137.0,16.3,-9999.0,'11111222,11111222,99999999' 
ADCP,ioos:station:wmo:42890:1,2010-11-02T22:57:00Z,27.6250,-90.4410,15.2,175.0,13.7,-9999.0,'11111222,11111222,99999999' 
ADCP,ioos:station:wmo:42890:1,2010-11-02T23:17:00Z,27.6250,-90.4410,15.2,179.0,15.8,-9999.0,'11111222,11111222,99999999' 
ADCP,ioos:station:wmo:42890:1,2010-11-02T23:37:00Z,27.6250,-90.4410,15.2,195.0,19.0,-9999.0,'11111222,11111222,99999999' 
ADCP,ioos:station:wmo:42890:1,2010-11-02T23:57:00Z,27.6250,-90.4410,15.2,191.0,19.0,-9999.0,'11111222,11111222,99999999' 
ADCP,ioos:station:wmo:42890:1,2010-11-03T00:17:00Z,27.6250,-90.4410,15.2,195.0,22.0,-9999.0,'11111222,11111222,99999999' 
ADCP,ioos:station:wmo:42890:1,2010-11-03T00:37:00Z,27.6250,-90.4410,15.2,192.0,20.0,-9999.0,'11111222,11111222,99999999' 
ADCP,ioos:station:wmo:42890:1,2010-11-03T00:57:00Z,27.6250,-90.4410,15.2,210.0,23.9,-9999.0,'11111222,11111222,99999999' 
ADCP,ioos:station:wmo:42890:1,2010-11-03T01:17:00Z,27.6250,-90.4410,15.2,208.0,25.2,-9999.0,'11111222,11111222,99999999' 
ADCP,ioos:station:wmo:42890:1,2010-11-03T01:37:00Z,27.6250,-90.4410,15.2,182.0,21.3,-9999.0,'11111222,11111222,99999999' 
ADCP,ioos:station:wmo:42890:1,2010-11-03T01:57:00Z,27.6250,-90.4410,15.2,190.0,23.7,-9999.0,'11111222,11111222,99999999' 
ADCP,ioos:station:wmo:42890:1,2010-11-03T02:17:00Z,27.6250,-90.4410,15.2,211.0,31.8,-9999.0,'11111222,11111222,99999999' 
ADCP,ioos:station:wmo:42890:1,2010-11-03T02:37:00Z,27.6250,-90.4410,15.2,168.0,37.8,-9999.0,'11111222,11111222,99999999' 
ADCP,ioos:station:wmo:42890:1,2010-11-03T02:57:00Z,27.6250,-90.4410,15.2,199.0,26.8,-9999.0,'11111222,11111222,99999999' 
ADCP,ioos:station:wmo:42890:1,2010-11-03T03:17:00Z,27.6250,-90.4410,15.2,219.0,28.4,-9999.0,'11111222,11111222,99999999' 
ADCP,ioos:station:wmo:42890:1,2010-11-03T03:37:00Z,27.6250,-90.4410,15.2,220.0,30.2,-9999.0,'11111222,11111222,99999999' 
ADCP,ioos:station:wmo:42890:1,2010-11-03T03:57:00Z,27.6250,-90.4410,15.2,223.0,28.3,-9999.0,'11111222,11111222,99999999' 
ADCP,ioos:station:wmo:42890:1,2010-11-03T04:17:00Z,27.6250,-90.4410,15.2,224.0,28.6,-9999.0,'11111222,11111222,99999999' 
ADCP,ioos:station:wmo:42890:1,2010-11-03T04:37:00Z,27.6250,-90.4410,15.2,239.0,37.4,-9999.0,'11111222,11111222,99999999' 
ADCP,ioos:station:wmo:42890:1,2010-11-03T04:57:00Z,27.6250,-90.4410,15.2,225.0,30.1,-9999.0,'11111222,11111222,99999999' 
ADCP,ioos:station:wmo:42890:1,2010-11-03T05:17:00Z,27.6250,-90.4410,15.2,220.0,24.2,-9999.0,'11111222,11111222,99999999' 
ADCP,ioos:station:wmo:42890:1,2010-11-03T05:37:00Z,27.6250,-90.4410,15.2,223.0,22.0,-9999.0,'11111222,11111222,99999999' 
ADCP,ioos:station:wmo:42890:1,2010-11-03T05:57:00Z,27.6250,-90.4410,15.2,228.0,23.3,-9999.0,'11111222,11111222,99999999' 
ADCP,ioos:station:wmo:42890:1,2010-11-03T06:17:00Z,27.6250,-90.4410,15.2,238.0,22.0,-9999.0,'11111222,11111222,99999999' 
ADCP,ioos:station:wmo:42890:1,2010-11-03T06:37:00Z,27.6250,-90.4410,15.2,242.0,20.2,-9999.0,'11111222,11111222,99999999' 
ADCP,ioos:station:wmo:42890:1,2010-11-03T06:57:00Z,27.6250,-90.4410,15.2,240.0,18.5,-9999.0,'11111222,11111222,99999999' 
ADCP,ioos:station:wmo:42890:1,2010-11-03T07:17:00Z,27.6250,-90.4410,15.2,242.0,23.1,-9999.0,'11111222,11111222,99999999' 
ADCP,ioos:station:wmo:42890:1,2010-11-03T07:37:00Z,27.6250,-90.4410,15.2,239.0,13.9,-9999.0,'11111222,11111222,99999999' 
ADCP,ioos:station:wmo:42890:1,2010-11-03T07:57:00Z,27.6250,-90.4410,15.2,245.0,15.2,-9999.0,'11111222,11111222,99999999' 
ADCP,ioos:station:wmo:42890:1,2010-11-03T08:17:00Z,27.6250,-90.4410,15.2,227.0,13.3,-9999.0,'11111222,11111222,99999999' 
ADCP,ioos:station:wmo:42890:1,2010-11-03T08:37:00Z,27.6250,-90.4410,15.2,242.0,11.5,-9999.0,'11111222,11111222,99999999' 
ADCP,ioos:station:wmo:42890:1,2010-11-03T08:57:00Z,27.6250,-90.4410,15.2,256.0,17.9,-9999.0,'11111222,11111222,99999999' 
ADCP,ioos:station:wmo:42890:1,2010-11-03T09:17:00Z,27.6250,-90.4410,15.2,268.0,20.6,-9999.0,'11111222,11111222,99999999' 
ADCP,ioos:station:wmo:42890:1,2010-11-03T09:37:00Z,27.6250,-90.4410,15.2,240.0,10.9,-9999.0,'11111222,11111222,99999999' 
ADCP,ioos:station:wmo:42890:1,2010-11-03T09:57:00Z,27.6250,-90.4410,15.2,209.0,9.0,-9999.0,'11133222,11111222,99999999' 
ADCP,ioos:station:wmo:42890:1,2010-11-03T10:17:00Z,27.6250,-90.4410,15.2,208.0,7.4,-9999.0,'11133222,11111222,99999999' 
ADCP,ioos:station:wmo:42890:1,2010-11-03T10:37:00Z,27.6250,-90.4410,15.2,227.0,7.4,-9999.0,'11133222,11111222,99999999' 
ADCP,ioos:station:wmo:42890:1,2010-11-03T10:57:00Z,27.6250,-90.4410,15.2,227.0,7.1,-9999.0,'11133222,11111222,99999999' 
ADCP,ioos:station:wmo:42890:1,2010-11-03T11:17:00Z,27.6250,-90.4410,15.2,218.0,6.6,-9999.0,'11133222,11111222,99999999' 
ADCP,ioos:station:wmo:42890:1,2010-11-03T11:37:00Z,27.6250,-90.4410,15.2,184.0,5.7,-9999.0,'11133222,11111222,99999999' 
ADCP,ioos:station:wmo:42890:1,2010-11-03T11:57:00Z,27.6250,-90.4410,15.2,169.0,5.8,-9999.0,'11133222,11111222,99999999' 
ADCP,ioos:station:wmo:42890:1,2010-11-03T12:17:00Z,27.6250,-90.4410,15.2,192.0,10.8,-9999.0,'11111222,11111222,99999999' 
ADCP,ioos:station:wmo:42890:1,2010-11-03T12:37:00Z,27.6250,-90.4410,15.2,128.0,14.9,-9999.0,'11111222,11111222,99999999' 
ADCP,ioos:station:wmo:42890:1,2010-11-03T12:57:00Z,27.6250,-90.4410,15.2,204.0,14.2,-9999.0,'11111222,11111222,99999999' 
ADCP,ioos:station:wmo:42890:1,2010-11-03T13:17:00Z,27.6250,-90.4410,15.2,161.0,8.8,-9999.0,'11133222,11111222,99999999' 
ADCP,ioos:station:wmo:42890:1,2010-11-03T13:37:00Z,27.6250,-90.4410,15.2,187.0,10.2,-9999.0,'11111222,11111222,99999999' 
ADCP,ioos:station:wmo:42890:1,2010-11-03T13:57:00Z,27.6250,-90.4410,15.2,192.0,8.4,-9999.0,'11133222,11111222,99999999' 
ADCP,ioos:station:wmo:42890:1,2010-11-03T14:17:00Z,27.6250,-90.4410,15.2,232.0,6.2,-9999.0,'11133222,11111222,99999999' 
ADCP,ioos:station:wmo:42890:1,2010-11-03T14:37:00Z,27.6250,-90.4410,15.2,237.0,5.1,-9999.0,'11133222,11111222,99999999' 
ADCP,ioos:station:wmo:42890:1,2010-11-03T14:57:00Z,27.6250,-90.4410,15.2,195.0,14.4,-9999.0,'11111222,11111222,99999999' 
ADCP,ioos:station:wmo:42890:1,2010-11-03T15:17:00Z,27.6250,-90.4410,15.2,197.0,17.3,-9999.0,'11111222,11111222,99999999' 
ADCP,ioos:station:wmo:42890:1,2010-11-03T15:37:00Z,27.6250,-90.4410,15.2,200.0,16.9,-9999.0,'11111222,11111222,99999999' 
ADCP,ioos:station:wmo:42890:1,2010-11-03T15:57:00Z,27.6250,-90.4410,15.2,188.0,18.7,-9999.0,'11111222,11111222,99999999' 
ADCP,ioos:station:wmo:42890:1,2010-11-03T16:17:00Z,27.6250,-90.4410,15.2,201.0,23.5,-9999.0,'11111222,11111222,99999999' 
ADCP,ioos:station:wmo:42890:1,2010-11-03T16:37:00Z,27.6250,-90.4410,15.2,200.0,19.5,-9999.0,'11111222,11111222,99999999' 
ADCP,ioos:station:wmo:42890:1,2010-11-03T16:57:00Z,27.6250,-90.4410,15.2,190.0,21.8,-9999.0,'11111222,11111222,99999999' 
ADCP,ioos:station:wmo:42890:1,2010-11-03T17:17:00Z,27.6250,-90.4410,15.2,197.0,21.5,-9999.0,'11111222,11111222,99999999' 
ADCP,ioos:station:wmo:42890:1,2010-11-03T17:37:00Z,27.6250,-90.4410,15.2,194.0,21.7,-9999.0,'11111222,11111222,99999999' 